Weather History for Kogalniceanu, Romania

Change the Weather History Date:

Monday, March 4, 2013

  Actual Average Record
Temperature  
Mean Temperature 40 °F -  
Max Temperature 48 °F 50 °F 71 °F (2008)
Min Temperature 32 °F 32 °F 21 °F (2005)
Degree Days  
Heating Degree Days 25    
Moisture  
Dew Point 27 °F    
Average Humidity 63    
Maximum Humidity 93    
Minimum Humidity 37    
Precipitation  
Precipitation 0.00 in - - ()
Sea Level Pressure  
Sea Level Pressure 30.06 in    
Wind  
Wind Speed 9 mph ()    
Max Wind Speed 17 mph    
Max Gust Speed -    
Visibility 6.2 miles    
Events      
Averages and records for this station are not official NWS values.
T = Trace of Precipitation, MM = Missing Value Source: Averaged Metar Reports

Daily Weather History Graph

Daily Weather History Graph

Search for Another Location

Airport:

Trip Planner

Search our weather history database for the weather conditions in past years. The results will help you decide how hot, cold, wet, or windy it might be!

Date:

Astronomy

Mar. 04, 2013 Rise Set
Actual Time 6:38 AM EET 5:58 PM EET
Civil Twilight 6:09 AM EET 6:27 PM EET
Nautical Twilight 5:35 AM EET 7:00 PM EET
Astronomical Twilight 5:02 AM EET 7:34 PM EET
Moon 12:35 AM EET (3/4) 10:13 AM EET (3/4)
Length of Visible Light 12h 17m
Length of Day
11h 19m
Waning Gibbous, 56% of the Moon is Illuminated
Mar 4
Waning Gibbous
Mar 4
Last Quarter
Mar 11
New
Mar 19
First Quarter
Mar 27
Full

Hourly Weather History & Observations

Time (EET) Temp. Windchill Dew Point Humidity Pressure Visibility Wind Dir Wind Speed Gust Speed Precip Events Conditions
12:00 AM 32.0 °F 25.6 °F 30.2 °F 93% 29.92 in - WSW 6.9 mph - N/A   Clear
12:30 AM 33.8 °F 25.8 °F 32.0 °F 93% 29.92 in - WSW 10.4 mph - N/A   Clear
1:00 AM 33.8 °F 25.8 °F 32.0 °F 93% 29.92 in - West 10.4 mph - N/A   Clear
1:30 AM 35.6 °F 27.5 °F 32.0 °F 87% 29.92 in - West 11.5 mph - N/A   Clear
2:00 AM 35.6 °F 28.0 °F 32.0 °F 87% 29.92 in - West 10.4 mph - N/A   Clear
2:30 AM 33.8 °F 25.3 °F 32.0 °F 93% 29.92 in - West 11.5 mph - N/A   Clear
3:00 AM 33.8 °F 25.8 °F 32.0 °F 93% 29.92 in - NW 10.4 mph - N/A   Clear
3:30 AM 32.0 °F 24.2 °F 30.2 °F 93% 29.92 in - NNW 9.2 mph - N/A   Clear
4:00 AM 35.6 °F 25.5 °F 28.4 °F 75% 29.95 in - North 17.3 mph - N/A   Clear
4:30 AM 35.6 °F 25.5 °F 28.4 °F 75% 29.95 in - North 17.3 mph - N/A   Clear
5:00 AM 35.6 °F 26.2 °F 26.6 °F 70% 29.95 in - North 15.0 mph - N/A   Clear
5:30 AM 35.6 °F 26.2 °F 26.6 °F 70% 29.98 in - North 15.0 mph - N/A   Clear
6:00 AM 33.8 °F 26.4 °F 26.6 °F 75% 29.98 in - North 9.2 mph - N/A   Clear
6:30 AM 33.8 °F 27.7 °F 24.8 °F 70% 30.01 in - North 6.9 mph - N/A   Clear
7:00 AM 33.8 °F 25.3 °F 24.8 °F 70% 30.01 in - North 11.5 mph - N/A   Clear
7:30 AM 33.8 °F 27.0 °F 24.8 °F 70% 30.01 in - North 8.1 mph - N/A   Clear
8:00 AM 35.6 °F 31.7 °F 26.6 °F 70% 30.04 in - NW 4.6 mph - N/A   Clear
8:30 AM 39.2 °F 32.0 °F 26.6 °F 61% 30.04 in - North 11.5 mph - N/A   Clear
9:00 AM 41.0 °F 33.9 °F 28.4 °F 61% 30.04 in - North 12.7 mph - N/A   Clear
9:30 AM 41.0 °F 33.5 °F 26.6 °F 57% 30.06 in - North 13.8 mph - N/A   Clear
10:00 AM 42.8 °F 35.8 °F 28.4 °F 57% 30.06 in - NNE 13.8 mph - N/A   Clear
10:30 AM 44.6 °F 38.4 °F 26.6 °F 49% 30.06 in - NNE 12.7 mph - N/A   Clear
11:00 AM 44.6 °F 38.8 °F 26.6 °F 49% 30.06 in - North 11.5 mph - N/A   Clear
11:30 AM 46.4 °F 41.1 °F 24.8 °F 43% 30.06 in - North 11.5 mph - N/A   Clear
12:00 PM 46.4 °F 41.9 °F 23.0 °F 40% 30.06 in 6.2 mi NNE 9.2 mph - N/A   Partly Cloudy
12:30 PM 46.4 °F 43.5 °F 23.0 °F 40% 30.06 in 6.2 mi Variable 5.8 mph - N/A   Scattered Clouds
1:00 PM 46.4 °F 43.5 °F 23.0 °F 40% 30.06 in 6.2 mi Variable 5.8 mph - N/A   Mostly Cloudy
1:30 PM 48.2 °F - 23.0 °F 37% 30.06 in 6.2 mi West 9.2 mph - N/A   Mostly Cloudy
2:00 PM 46.4 °F 41.5 °F 23.0 °F 40% 30.06 in 6.2 mi WNW 10.4 mph - N/A   Mostly Cloudy
2:30 PM 46.4 °F 43.5 °F 28.4 °F 50% 30.06 in 6.2 mi WNW 5.8 mph - N/A   Mostly Cloudy
3:00 PM 46.4 °F 42.4 °F 26.6 °F 46% 30.06 in 6.2 mi NNW 8.1 mph - N/A   Scattered Clouds
3:30 PM 44.6 °F 43.1 °F 26.6 °F 49% 30.09 in 6.2 mi Variable 3.5 mph - N/A   Scattered Clouds
4:00 PM 44.6 °F 43.1 °F 26.6 °F 49% 30.09 in 6.2 mi Variable 3.5 mph - N/A   Scattered Clouds
4:30 PM 42.8 °F 38.0 °F 26.6 °F 53% 30.09 in - WNW 8.1 mph - N/A   Clear
5:00 PM 44.6 °F 40.7 °F 24.8 °F 46% 30.09 in 6.2 mi WNW 6.9 mph - N/A   Scattered Clouds
5:30 PM 44.6 °F 39.7 °F 28.4 °F 53% 30.12 in 6.2 mi North 9.2 mph - N/A   Scattered Clouds
6:00 PM 41.0 °F 36.4 °F 26.6 °F 57% 30.12 in 6.2 mi East 6.9 mph - N/A   Scattered Clouds
6:30 PM 41.0 °F 39.0 °F 26.6 °F 57% 30.15 in 6.2 mi ESE 3.5 mph - N/A   Scattered Clouds
7:00 PM 39.2 °F 37.0 °F 26.6 °F 61% 30.15 in 6.2 mi ESE 3.5 mph - N/A   Mostly Cloudy
7:30 PM 39.2 °F - 26.6 °F 61% 30.18 in 6.2 mi SE 2.3 mph - N/A   Mostly Cloudy
8:00 PM 39.2 °F - 26.6 °F 61% 30.18 in 6.2 mi SSE 2.3 mph - N/A   Mostly Cloudy
8:30 PM 39.2 °F 37.0 °F 26.6 °F 61% 30.21 in 6.2 mi North 3.5 mph - N/A   Scattered Clouds
9:00 PM 39.2 °F 34.2 °F 24.8 °F 56% 30.21 in 6.2 mi North 6.9 mph - N/A   Scattered Clouds
9:30 PM 37.4 °F 30.3 °F 23.0 °F 56% 30.24 in 6.2 mi NNE 10.4 mph - N/A   Scattered Clouds
10:00 PM 35.6 °F 28.0 °F 23.0 °F 60% 30.27 in - North 10.4 mph - N/A   Clear
10:30 PM 35.6 °F 28.6 °F 23.0 °F 60% 30.27 in - North 9.2 mph - N/A   Clear
11:00 PM 35.6 °F 30.7 °F 23.0 °F 60% 30.30 in - North 5.8 mph - N/A   Clear
11:30 PM 32.0 °F 24.8 °F 23.0 °F 69% 30.30 in - North 8.1 mph - N/A   Clear